Year,Month,Day,Hour,Minute,Value (Times are PST for temperature in C)
2007,07,09,00,00,15.10
2007,07,09,00,01,15.10
2007,07,09,00,02,15.10
2007,07,09,00,03,15.00
2007,07,09,00,04,15.00
2007,07,09,00,05,15.00
2007,07,09,00,06,15.00
2007,07,09,00,07,15.00
2007,07,09,00,08,15.00
2007,07,09,00,09,15.00
2007,07,09,00,10,15.00
2007,07,09,00,11,15.00
2007,07,09,00,12,15.00
2007,07,09,00,13,15.00
2007,07,09,00,14,15.00
2007,07,09,00,15,15.00
2007,07,09,00,16,15.00
2007,07,09,00,17,15.00
2007,07,09,00,18,15.00
2007,07,09,00,19,14.90
2007,07,09,00,20,14.90
2007,07,09,00,21,14.90
2007,07,09,00,22,14.90
2007,07,09,00,23,14.90
2007,07,09,00,24,14.90
2007,07,09,00,25,14.80
2007,07,09,00,26,14.80
2007,07,09,00,27,14.80
2007,07,09,00,28,14.80
2007,07,09,00,29,14.80
2007,07,09,00,30,14.70
2007,07,09,00,31,14.70
2007,07,09,00,32,14.70
2007,07,09,00,33,14.70
2007,07,09,00,34,14.70
2007,07,09,00,35,14.70
2007,07,09,00,36,14.60
2007,07,09,00,37,14.60
2007,07,09,00,38,14.60
2007,07,09,00,39,14.60
2007,07,09,00,40,14.50
2007,07,09,00,41,14.50
2007,07,09,00,42,14.50
2007,07,09,00,43,14.40
2007,07,09,00,44,14.40
2007,07,09,00,45,14.30
2007,07,09,00,46,14.30
2007,07,09,00,47,14.30
2007,07,09,00,48,14.30
2007,07,09,00,49,14.30
2007,07,09,00,50,14.20
2007,07,09,00,51,14.20
2007,07,09,00,52,14.20
2007,07,09,00,53,14.10
2007,07,09,00,54,14.10
2007,07,09,00,55,14.10
2007,07,09,00,56,14.00
2007,07,09,00,57,14.00
2007,07,09,00,58,14.00
2007,07,09,00,59,14.00
2007,07,09,01,00,14.00
2007,07,09,01,01,13.90
2007,07,09,01,02,13.90
2007,07,09,01,03,13.90
2007,07,09,01,04,13.90
2007,07,09,01,05,13.80
2007,07,09,01,06,13.80
2007,07,09,01,07,13.80
2007,07,09,01,08,13.80
2007,07,09,01,09,13.80
2007,07,09,01,10,13.80
2007,07,09,01,11,13.80
2007,07,09,01,12,13.70
2007,07,09,01,13,13.70
2007,07,09,01,14,13.70
2007,07,09,01,15,13.70
2007,07,09,01,16,13.60
2007,07,09,01,17,13.60
2007,07,09,01,18,13.60
2007,07,09,01,19,13.60
2007,07,09,01,20,13.60
2007,07,09,01,21,13.60
2007,07,09,01,22,13.50
2007,07,09,01,23,13.50
2007,07,09,01,24,13.50
2007,07,09,01,25,13.50
2007,07,09,01,26,13.50
2007,07,09,01,27,13.40
2007,07,09,01,28,13.40
2007,07,09,01,29,13.40
2007,07,09,01,30,13.40
2007,07,09,01,31,13.40
2007,07,09,01,32,13.40
2007,07,09,01,33,13.40
2007,07,09,01,34,13.30
2007,07,09,01,35,13.30
2007,07,09,01,36,13.30
2007,07,09,01,37,13.30
2007,07,09,01,38,13.30
2007,07,09,01,39,13.30
2007,07,09,01,40,13.30
2007,07,09,01,41,13.20
2007,07,09,01,42,13.20
2007,07,09,01,43,13.20
2007,07,09,01,44,13.20
2007,07,09,01,45,13.20
2007,07,09,01,46,13.20
2007,07,09,01,47,13.20
2007,07,09,01,48,13.20
2007,07,09,01,49,13.20
2007,07,09,01,50,13.20
2007,07,09,01,51,13.20
2007,07,09,01,52,13.10
2007,07,09,01,53,13.10
2007,07,09,01,54,13.10
2007,07,09,01,55,13.10
2007,07,09,01,56,13.10
2007,07,09,01,57,13.10
2007,07,09,01,58,13.10
2007,07,09,01,59,13.00
2007,07,09,02,00,13.00
2007,07,09,02,01,13.00
2007,07,09,02,02,13.00
2007,07,09,02,03,12.90
2007,07,09,02,04,12.90
2007,07,09,02,05,12.90
2007,07,09,02,06,12.90
2007,07,09,02,07,12.90
2007,07,09,02,08,12.90
2007,07,09,02,09,12.80
2007,07,09,02,10,12.80
2007,07,09,02,11,12.80
2007,07,09,02,12,12.80
2007,07,09,02,13,12.80
2007,07,09,02,14,12.80
2007,07,09,02,15,12.80
2007,07,09,02,16,12.80
2007,07,09,02,17,12.80
2007,07,09,02,18,12.80
2007,07,09,02,19,12.70
2007,07,09,02,20,12.70
2007,07,09,02,21,12.70
2007,07,09,02,22,12.70
2007,07,09,02,23,12.70
2007,07,09,02,24,12.70
2007,07,09,02,25,12.70
2007,07,09,02,26,12.70
2007,07,09,02,27,12.60
2007,07,09,02,28,12.60
2007,07,09,02,29,12.60
2007,07,09,02,30,12.60
2007,07,09,02,31,12.70
2007,07,09,02,32,12.70
2007,07,09,02,33,12.70
2007,07,09,02,34,12.70
2007,07,09,02,35,12.70
2007,07,09,02,36,12.70
2007,07,09,02,37,12.70
2007,07,09,02,38,12.70
2007,07,09,02,39,12.70
2007,07,09,02,40,12.70
2007,07,09,02,41,12.70
2007,07,09,02,42,12.60
2007,07,09,02,43,12.60
2007,07,09,02,44,12.60
2007,07,09,02,45,12.60
2007,07,09,02,46,12.60
2007,07,09,02,47,12.60
2007,07,09,02,48,12.60
2007,07,09,02,49,12.60
2007,07,09,02,50,12.60
2007,07,09,02,51,12.60
2007,07,09,02,52,12.60
2007,07,09,02,53,12.60
2007,07,09,02,54,12.60
2007,07,09,02,55,12.60
2007,07,09,02,56,12.60
2007,07,09,02,57,12.60
2007,07,09,02,58,12.60
2007,07,09,02,59,12.60
2007,07,09,03,00,12.70
2007,07,09,03,01,12.70
2007,07,09,03,02,12.70
2007,07,09,03,03,12.70
2007,07,09,03,04,12.70
2007,07,09,03,05,12.60
2007,07,09,03,06,12.60
2007,07,09,03,07,12.60
2007,07,09,03,08,12.60
2007,07,09,03,09,12.60
2007,07,09,03,10,12.60
2007,07,09,03,11,12.60
2007,07,09,03,12,12.60
2007,07,09,03,13,12.60
2007,07,09,03,14,12.50
2007,07,09,03,15,12.50
2007,07,09,03,16,12.50
2007,07,09,03,17,12.50
2007,07,09,03,18,12.50
2007,07,09,03,19,12.50
2007,07,09,03,20,12.40
2007,07,09,03,21,12.40
2007,07,09,03,22,12.40
2007,07,09,03,23,12.40
2007,07,09,03,24,12.30
2007,07,09,03,25,12.30
2007,07,09,03,26,12.30
2007,07,09,03,27,12.20
2007,07,09,03,28,12.20
2007,07,09,03,29,12.20
2007,07,09,03,30,12.20
2007,07,09,03,31,12.10
2007,07,09,03,32,12.10
2007,07,09,03,33,12.10
2007,07,09,03,34,12.10
2007,07,09,03,35,12.00
2007,07,09,03,36,12.00
2007,07,09,03,37,12.00
2007,07,09,03,38,12.00
2007,07,09,03,39,12.00
2007,07,09,03,40,12.00
2007,07,09,03,41,12.00
2007,07,09,03,42,12.00
2007,07,09,03,43,11.90
2007,07,09,03,44,11.90
2007,07,09,03,45,11.90
2007,07,09,03,46,11.90
2007,07,09,03,47,11.90
2007,07,09,03,48,11.90
2007,07,09,03,49,11.90
2007,07,09,03,50,11.90
2007,07,09,03,51,11.90
2007,07,09,03,52,11.90
2007,07,09,03,53,11.80
2007,07,09,03,54,11.80
2007,07,09,03,55,11.80
2007,07,09,03,56,11.80
2007,07,09,03,57,11.80
2007,07,09,03,58,11.80
2007,07,09,03,59,11.80
2007,07,09,04,00,11.70
2007,07,09,04,01,11.70
2007,07,09,04,02,11.70
2007,07,09,04,03,11.70
2007,07,09,04,04,11.70
2007,07,09,04,05,11.70
2007,07,09,04,06,11.60
2007,07,09,04,07,11.60
2007,07,09,04,08,11.60
2007,07,09,04,09,11.60
2007,07,09,04,10,11.60
2007,07,09,04,11,11.60
2007,07,09,04,12,11.60
2007,07,09,04,13,11.60
2007,07,09,04,14,11.70
2007,07,09,04,15,11.60
2007,07,09,04,16,11.60
2007,07,09,04,17,11.60
2007,07,09,04,18,11.60
2007,07,09,04,19,11.60
2007,07,09,04,20,11.60
2007,07,09,04,21,11.60
2007,07,09,04,22,11.50
2007,07,09,04,23,11.50
2007,07,09,04,24,11.50
2007,07,09,04,25,11.50
2007,07,09,04,26,11.50
2007,07,09,04,27,11.50
2007,07,09,04,28,11.50
2007,07,09,04,29,11.50
2007,07,09,04,30,11.50
2007,07,09,04,31,11.50
2007,07,09,04,32,11.50
2007,07,09,04,33,11.50
2007,07,09,04,34,11.50
2007,07,09,04,35,11.50
2007,07,09,04,36,11.50
2007,07,09,04,37,11.50
2007,07,09,04,38,11.50
2007,07,09,04,39,11.50
2007,07,09,04,40,11.50
2007,07,09,04,41,11.50
2007,07,09,04,42,11.50
2007,07,09,04,43,11.50
2007,07,09,04,44,11.50
2007,07,09,04,45,11.50
2007,07,09,04,46,11.50
2007,07,09,04,47,11.50
2007,07,09,04,48,11.50
2007,07,09,04,49,11.50
2007,07,09,04,50,11.40
2007,07,09,04,51,11.40
2007,07,09,04,52,11.30
2007,07,09,04,53,11.30
2007,07,09,04,54,11.30
2007,07,09,04,55,11.30
2007,07,09,04,56,11.30
2007,07,09,04,57,11.30
2007,07,09,04,58,11.30
2007,07,09,04,59,11.30
2007,07,09,05,00,11.20
2007,07,09,05,01,11.20
2007,07,09,05,02,11.20
2007,07,09,05,03,11.20
2007,07,09,05,04,11.20
2007,07,09,05,05,11.20
2007,07,09,05,06,11.20
2007,07,09,05,07,11.20
2007,07,09,05,08,11.20
2007,07,09,05,09,11.20
2007,07,09,05,10,11.20
2007,07,09,05,11,11.20
2007,07,09,05,12,11.20
2007,07,09,05,13,11.20
2007,07,09,05,14,11.10
2007,07,09,05,15,11.10
2007,07,09,05,16,11.10
2007,07,09,05,17,11.10
2007,07,09,05,18,11.00
2007,07,09,05,19,11.00
2007,07,09,05,20,10.90
2007,07,09,05,21,10.90
2007,07,09,05,22,10.90
2007,07,09,05,23,10.90
2007,07,09,05,24,10.90
2007,07,09,05,25,10.90
2007,07,09,05,26,10.90
2007,07,09,05,27,10.90
2007,07,09,05,28,10.90
2007,07,09,05,29,10.90
2007,07,09,05,30,10.90
2007,07,09,05,31,10.90
2007,07,09,05,32,10.90
2007,07,09,05,33,10.90
2007,07,09,05,34,10.90
2007,07,09,05,35,10.90
2007,07,09,05,36,10.90
2007,07,09,05,37,10.90
2007,07,09,05,38,10.90
2007,07,09,05,39,10.90
2007,07,09,05,40,10.80
2007,07,09,05,41,10.80
2007,07,09,05,42,10.80
2007,07,09,05,43,10.90
2007,07,09,05,44,10.90
2007,07,09,05,45,10.90
2007,07,09,05,46,10.90
2007,07,09,05,47,10.90
2007,07,09,05,48,10.90
2007,07,09,05,49,10.90
2007,07,09,05,50,10.90
2007,07,09,05,51,11.00
2007,07,09,05,52,11.00
2007,07,09,05,53,11.00
2007,07,09,05,54,11.00
2007,07,09,05,55,11.00
2007,07,09,05,56,11.00
2007,07,09,05,57,11.00
2007,07,09,05,58,11.00
2007,07,09,05,59,11.00
2007,07,09,06,00,11.00
2007,07,09,06,01,11.00
2007,07,09,06,02,11.10
2007,07,09,06,03,11.10
2007,07,09,06,04,11.10
2007,07,09,06,05,11.10
2007,07,09,06,06,11.20
2007,07,09,06,07,11.20
2007,07,09,06,08,11.30
2007,07,09,06,09,11.30
2007,07,09,06,10,11.40
2007,07,09,06,11,11.40
2007,07,09,06,12,11.50
2007,07,09,06,13,11.50
2007,07,09,06,14,11.60
2007,07,09,06,15,11.60
2007,07,09,06,16,11.70
2007,07,09,06,17,11.70
2007,07,09,06,18,11.70
2007,07,09,06,19,11.80
2007,07,09,06,20,11.80
2007,07,09,06,21,11.90
2007,07,09,06,22,11.90
2007,07,09,06,23,11.90
2007,07,09,06,24,11.90
2007,07,09,06,25,12.00
2007,07,09,06,26,12.10
2007,07,09,06,27,12.10
2007,07,09,06,28,12.10
2007,07,09,06,29,12.20
2007,07,09,06,30,12.20
2007,07,09,06,31,12.20
2007,07,09,06,32,12.20
2007,07,09,06,33,12.20
2007,07,09,06,34,12.30
2007,07,09,06,35,12.30
2007,07,09,06,36,12.30
2007,07,09,06,37,12.40
2007,07,09,06,38,12.40
2007,07,09,06,39,12.50
2007,07,09,06,40,12.60
2007,07,09,06,41,12.60
2007,07,09,06,42,12.70
2007,07,09,06,43,12.80
2007,07,09,06,44,12.80
2007,07,09,06,45,12.90
2007,07,09,06,46,13.00
2007,07,09,06,47,13.00
2007,07,09,06,48,13.10
2007,07,09,06,49,13.10
2007,07,09,06,50,13.20
2007,07,09,06,51,13.30
2007,07,09,06,52,13.40
2007,07,09,06,53,13.60
2007,07,09,06,54,13.70
2007,07,09,06,55,13.70
2007,07,09,06,56,13.80
2007,07,09,06,57,13.90
2007,07,09,06,58,14.10
2007,07,09,06,59,14.20
2007,07,09,07,00,14.30
2007,07,09,07,01,14.40
2007,07,09,07,02,14.50
2007,07,09,07,03,14.60
2007,07,09,07,04,14.60
2007,07,09,07,05,14.70
2007,07,09,07,06,14.80
2007,07,09,07,07,15.00
2007,07,09,07,08,15.00
2007,07,09,07,09,15.10
2007,07,09,07,10,15.30
2007,07,09,07,11,15.40
2007,07,09,07,12,15.50
2007,07,09,07,13,15.60
2007,07,09,07,14,15.70
2007,07,09,07,15,15.80
2007,07,09,07,16,15.80
2007,07,09,07,17,15.90
2007,07,09,07,18,16.00
2007,07,09,07,19,16.00
2007,07,09,07,20,16.10
2007,07,09,07,21,16.10
2007,07,09,07,22,16.20
2007,07,09,07,23,16.20
2007,07,09,07,24,16.30
2007,07,09,07,25,16.40
2007,07,09,07,26,16.40
2007,07,09,07,27,16.50
2007,07,09,07,28,16.60
2007,07,09,07,29,16.70
2007,07,09,07,30,16.70
2007,07,09,07,31,16.70
2007,07,09,07,32,16.80
2007,07,09,07,33,16.90
2007,07,09,07,34,16.90
2007,07,09,07,35,17.00
2007,07,09,07,36,17.10
2007,07,09,07,37,17.00
2007,07,09,07,38,17.10
2007,07,09,07,39,17.10
2007,07,09,07,40,17.20
2007,07,09,07,41,17.30
2007,07,09,07,42,17.20
2007,07,09,07,43,17.20
2007,07,09,07,44,17.20
2007,07,09,07,45,17.20
2007,07,09,07,46,17.20
2007,07,09,07,47,17.20
2007,07,09,07,48,17.30
2007,07,09,07,49,17.30
2007,07,09,07,50,17.40
2007,07,09,07,51,17.40
2007,07,09,07,52,17.40
2007,07,09,07,53,17.30
2007,07,09,07,54,17.30
2007,07,09,07,55,17.30
2007,07,09,07,56,17.20
2007,07,09,07,57,17.20
2007,07,09,07,58,17.20
2007,07,09,07,59,17.30
2007,07,09,08,00,17.30
2007,07,09,08,01,17.30
2007,07,09,08,02,17.40
2007,07,09,08,03,17.50
2007,07,09,08,04,17.60
2007,07,09,08,05,17.70
2007,07,09,08,06,17.90
2007,07,09,08,07,18.00
2007,07,09,08,08,18.10
2007,07,09,08,09,18.20
2007,07,09,08,10,18.30
2007,07,09,08,11,18.30
2007,07,09,08,12,18.30
2007,07,09,08,13,18.20
2007,07,09,08,14,18.20
2007,07,09,08,15,18.30
2007,07,09,08,16,18.30
2007,07,09,08,17,18.40
2007,07,09,08,18,18.40
2007,07,09,08,19,18.30
2007,07,09,08,20,18.40
2007,07,09,08,21,18.40
2007,07,09,08,22,18.50
2007,07,09,08,23,18.60
2007,07,09,08,24,18.60
2007,07,09,08,25,18.60
2007,07,09,08,26,18.60
2007,07,09,08,27,18.60
2007,07,09,08,28,18.50
2007,07,09,08,29,18.50
2007,07,09,08,30,18.40
2007,07,09,08,31,18.50
2007,07,09,08,32,18.50
2007,07,09,08,33,18.50
2007,07,09,08,34,18.60
2007,07,09,08,35,18.70
2007,07,09,08,36,18.70
2007,07,09,08,37,18.70
2007,07,09,08,38,18.80
2007,07,09,08,39,18.80
2007,07,09,08,40,18.70
2007,07,09,08,41,18.60
2007,07,09,08,42,18.60
2007,07,09,08,43,18.70
2007,07,09,08,44,18.70
2007,07,09,08,45,18.70
2007,07,09,08,46,18.70
2007,07,09,08,47,18.70
2007,07,09,08,48,18.70
2007,07,09,08,49,18.60
2007,07,09,08,50,18.60
2007,07,09,08,51,18.50
2007,07,09,08,52,18.50
2007,07,09,08,53,18.40
2007,07,09,08,54,18.40
2007,07,09,08,55,18.50
2007,07,09,08,56,18.60
2007,07,09,08,57,18.60
2007,07,09,08,58,18.70
2007,07,09,08,59,18.80
2007,07,09,09,00,18.80
2007,07,09,09,01,18.90
2007,07,09,09,02,18.80
2007,07,09,09,03,18.80
2007,07,09,09,04,18.80
2007,07,09,09,05,18.90
2007,07,09,09,06,19.00
2007,07,09,09,07,19.10
2007,07,09,09,08,19.20
2007,07,09,09,09,19.20
2007,07,09,09,10,19.30
2007,07,09,09,11,19.30
2007,07,09,09,12,19.30
2007,07,09,09,13,19.30
2007,07,09,09,14,19.30
2007,07,09,09,15,19.30
2007,07,09,09,16,19.40
2007,07,09,09,17,19.50
2007,07,09,09,18,19.50
2007,07,09,09,19,19.40
2007,07,09,09,20,19.40
2007,07,09,09,21,19.40
2007,07,09,09,22,19.30
2007,07,09,09,23,19.30
2007,07,09,09,24,19.20
2007,07,09,09,25,19.20
2007,07,09,09,26,19.20
2007,07,09,09,27,19.10
2007,07,09,09,28,19.10
2007,07,09,09,29,19.20
2007,07,09,09,30,19.40
2007,07,09,09,31,19.40
2007,07,09,09,32,19.50
2007,07,09,09,33,19.60
2007,07,09,09,34,19.60
2007,07,09,09,35,19.60
2007,07,09,09,36,19.60
2007,07,09,09,37,19.60
2007,07,09,09,38,19.60
2007,07,09,09,39,19.70
2007,07,09,09,40,19.70
2007,07,09,09,41,19.60
2007,07,09,09,42,19.40
2007,07,09,09,43,19.30
2007,07,09,09,44,19.30
2007,07,09,09,45,19.30
2007,07,09,09,46,19.40
2007,07,09,09,47,19.40
2007,07,09,09,48,19.50
2007,07,09,09,49,19.50
2007,07,09,09,50,19.50
2007,07,09,09,51,19.60
2007,07,09,09,52,19.70
2007,07,09,09,53,19.70
2007,07,09,09,54,19.80
2007,07,09,09,55,19.80
2007,07,09,09,56,19.80
2007,07,09,09,57,19.90
2007,07,09,09,58,20.00
2007,07,09,09,59,20.00
2007,07,09,10,00,20.10
2007,07,09,10,01,20.00
2007,07,09,10,02,20.10
2007,07,09,10,03,20.20
2007,07,09,10,04,20.20
2007,07,09,10,05,20.20
2007,07,09,10,06,20.10
2007,07,09,10,07,20.10
2007,07,09,10,08,20.00
2007,07,09,10,09,19.90
2007,07,09,10,10,19.80
2007,07,09,10,11,19.70
2007,07,09,10,12,19.60
2007,07,09,10,13,19.60
2007,07,09,10,14,19.60
2007,07,09,10,15,19.70
2007,07,09,10,16,19.80
2007,07,09,10,17,19.80
2007,07,09,10,18,19.80
2007,07,09,10,19,19.90
2007,07,09,10,20,19.90
2007,07,09,10,21,20.00
2007,07,09,10,22,20.00
2007,07,09,10,23,20.10
2007,07,09,10,24,20.00
2007,07,09,10,25,19.90
2007,07,09,10,26,19.90
2007,07,09,10,27,19.90
2007,07,09,10,28,19.90
2007,07,09,10,29,19.90
2007,07,09,10,30,19.90
2007,07,09,10,31,19.90
2007,07,09,10,32,19.90
2007,07,09,10,33,19.90
2007,07,09,10,34,19.80
2007,07,09,10,35,19.70
2007,07,09,10,36,19.70
2007,07,09,10,37,19.70
2007,07,09,10,38,19.60
2007,07,09,10,39,19.60
2007,07,09,10,40,19.60
2007,07,09,10,41,19.70
2007,07,09,10,42,19.70
2007,07,09,10,43,19.70
2007,07,09,10,44,19.80
2007,07,09,10,45,19.90
2007,07,09,10,46,20.00
2007,07,09,10,47,20.10
2007,07,09,10,48,20.10
2007,07,09,10,49,20.20
2007,07,09,10,50,20.20
2007,07,09,10,51,20.30
2007,07,09,10,52,20.30
2007,07,09,10,53,20.30
2007,07,09,10,54,20.30
2007,07,09,10,55,20.30
2007,07,09,10,56,20.20
2007,07,09,10,57,20.20
2007,07,09,10,58,20.20
2007,07,09,10,59,20.30
2007,07,09,11,00,20.30
2007,07,09,11,01,20.40
2007,07,09,11,02,20.40
2007,07,09,11,03,20.40
2007,07,09,11,04,20.40
2007,07,09,11,05,20.40
2007,07,09,11,06,20.30
2007,07,09,11,07,20.20
2007,07,09,11,08,20.20
2007,07,09,11,09,20.20
2007,07,09,11,10,20.20
2007,07,09,11,11,20.20
2007,07,09,11,12,20.20
2007,07,09,11,13,20.20
2007,07,09,11,14,20.10
2007,07,09,11,15,20.00
2007,07,09,11,16,19.90
2007,07,09,11,17,20.00
2007,07,09,11,18,20.10
2007,07,09,11,19,20.20
2007,07,09,11,20,20.20
2007,07,09,11,21,20.20
2007,07,09,11,22,20.10
2007,07,09,11,23,20.10
2007,07,09,11,24,20.20
2007,07,09,11,25,20.20
2007,07,09,11,26,20.10
2007,07,09,11,27,20.10
2007,07,09,11,28,20.10
2007,07,09,11,29,20.20
2007,07,09,11,30,20.30
2007,07,09,11,31,20.40
2007,07,09,11,32,20.40
2007,07,09,11,33,20.50
2007,07,09,11,34,20.40
2007,07,09,11,35,20.40
2007,07,09,11,36,20.50
2007,07,09,11,37,20.50
2007,07,09,11,38,20.50
2007,07,09,11,39,20.40
2007,07,09,11,40,20.40
2007,07,09,11,41,20.30
2007,07,09,11,42,20.30
2007,07,09,11,43,20.30
2007,07,09,11,44,20.30
2007,07,09,11,45,20.40
2007,07,09,11,46,20.60
2007,07,09,11,47,20.70
2007,07,09,11,48,20.80
2007,07,09,11,49,20.90
2007,07,09,11,50,21.00
2007,07,09,11,51,21.00
2007,07,09,11,52,20.80
2007,07,09,11,53,20.70
2007,07,09,11,54,20.60
2007,07,09,11,55,20.70
2007,07,09,11,56,20.90
2007,07,09,11,57,21.00
2007,07,09,11,58,21.20
2007,07,09,11,59,21.30
2007,07,09,12,00,21.30
2007,07,09,12,01,21.20
2007,07,09,12,02,21.30
2007,07,09,12,03,21.30
2007,07,09,12,04,21.30
2007,07,09,12,05,21.30
2007,07,09,12,06,21.20
2007,07,09,12,07,21.20
2007,07,09,12,08,21.20
2007,07,09,12,09,21.10
2007,07,09,12,10,21.00
2007,07,09,12,11,21.00
2007,07,09,12,12,21.00
2007,07,09,12,13,21.00
2007,07,09,12,14,20.90
2007,07,09,12,15,20.90
2007,07,09,12,16,21.00
2007,07,09,12,17,21.10
2007,07,09,12,18,21.10
2007,07,09,12,19,21.10
2007,07,09,12,20,21.20
2007,07,09,12,21,21.30
2007,07,09,12,22,21.30
2007,07,09,12,23,21.40
2007,07,09,12,24,21.40
2007,07,09,12,25,21.50
2007,07,09,12,26,21.40
2007,07,09,12,27,21.30
2007,07,09,12,28,21.20
2007,07,09,12,29,21.20
2007,07,09,12,30,21.20
2007,07,09,12,31,21.40
2007,07,09,12,32,21.60
2007,07,09,12,33,21.70
2007,07,09,12,34,21.80
2007,07,09,12,35,21.90
2007,07,09,12,36,22.20
2007,07,09,12,37,22.30
2007,07,09,12,38,22.30
2007,07,09,12,39,22.20
2007,07,09,12,40,22.10
2007,07,09,12,41,22.00
2007,07,09,12,42,21.90
2007,07,09,12,43,21.80
2007,07,09,12,44,21.80
2007,07,09,12,45,21.80
2007,07,09,12,46,21.80
2007,07,09,12,47,21.80
2007,07,09,12,48,21.80
2007,07,09,12,49,21.90
2007,07,09,12,50,21.80
2007,07,09,12,51,21.90
2007,07,09,12,52,21.80
2007,07,09,12,53,21.80
2007,07,09,12,54,21.90
2007,07,09,12,55,22.00
2007,07,09,12,56,22.10
2007,07,09,12,57,22.00
2007,07,09,12,58,21.90
2007,07,09,12,59,22.00
2007,07,09,13,00,22.00
2007,07,09,13,01,21.90
2007,07,09,13,02,21.90
2007,07,09,13,03,21.80
2007,07,09,13,04,21.80
2007,07,09,13,05,21.80
2007,07,09,13,06,21.90
2007,07,09,13,07,22.10
2007,07,09,13,08,22.30
2007,07,09,13,09,22.30
2007,07,09,13,10,22.40
2007,07,09,13,11,22.50
2007,07,09,13,12,22.70
2007,07,09,13,13,22.80
2007,07,09,13,14,22.70
2007,07,09,13,15,22.60
2007,07,09,13,16,22.60
2007,07,09,13,17,22.50
2007,07,09,13,18,22.50
2007,07,09,13,19,22.40
2007,07,09,13,20,22.40
2007,07,09,13,21,22.40
2007,07,09,13,22,22.40
2007,07,09,13,23,22.40
2007,07,09,13,24,22.40
2007,07,09,13,25,22.40
2007,07,09,13,26,22.40
2007,07,09,13,27,22.40
2007,07,09,13,28,22.60
2007,07,09,13,29,22.60
2007,07,09,13,30,22.70
2007,07,09,13,31,22.70
2007,07,09,13,32,22.60
2007,07,09,13,33,22.50
2007,07,09,13,34,22.50
2007,07,09,13,35,22.60
2007,07,09,13,36,22.60
2007,07,09,13,37,22.70
2007,07,09,13,38,22.80
2007,07,09,13,39,22.90
2007,07,09,13,40,22.90
2007,07,09,13,41,23.10
2007,07,09,13,42,23.20
2007,07,09,13,43,23.30
2007,07,09,13,44,23.30
2007,07,09,13,45,23.40
2007,07,09,13,46,23.40
2007,07,09,13,47,23.30
2007,07,09,13,48,23.10
2007,07,09,13,49,23.20
2007,07,09,13,50,23.30
2007,07,09,13,51,23.40
2007,07,09,13,52,23.50
2007,07,09,13,53,23.60
2007,07,09,13,54,23.50
2007,07,09,13,55,23.40
2007,07,09,13,56,23.30
2007,07,09,13,57,23.30
2007,07,09,13,58,23.20
2007,07,09,13,59,23.10
2007,07,09,14,00,23.10
2007,07,09,14,01,23.20
2007,07,09,14,02,23.30
2007,07,09,14,03,23.20
2007,07,09,14,04,23.20
2007,07,09,14,05,23.50
2007,07,09,14,06,23.70
2007,07,09,14,07,23.80
2007,07,09,14,08,23.80
2007,07,09,14,09,23.80
2007,07,09,14,10,23.80
2007,07,09,14,11,23.90
2007,07,09,14,12,23.90
2007,07,09,14,13,23.80
2007,07,09,14,14,23.80
2007,07,09,14,15,23.70
2007,07,09,14,16,23.70
2007,07,09,14,17,23.70
2007,07,09,14,18,23.60
2007,07,09,14,19,23.60
2007,07,09,14,20,23.80
2007,07,09,14,21,24.00
2007,07,09,14,22,24.10
2007,07,09,14,23,24.20
2007,07,09,14,24,24.30
2007,07,09,14,25,24.30
2007,07,09,14,26,24.30
2007,07,09,14,27,24.30
2007,07,09,14,28,24.30
2007,07,09,14,29,24.30
2007,07,09,14,30,24.40
2007,07,09,14,31,24.40
2007,07,09,14,32,24.30
2007,07,09,14,33,24.20
2007,07,09,14,34,24.20
2007,07,09,14,35,24.20
2007,07,09,14,36,24.10
2007,07,09,14,37,24.10
2007,07,09,14,38,24.20
2007,07,09,14,39,24.40
2007,07,09,14,40,24.50
2007,07,09,14,41,24.60
2007,07,09,14,42,24.70
2007,07,09,14,43,24.80
2007,07,09,14,44,24.90
2007,07,09,14,45,24.90
2007,07,09,14,46,24.80
2007,07,09,14,47,24.80
2007,07,09,14,48,24.70
2007,07,09,14,49,24.70
2007,07,09,14,50,24.60
2007,07,09,14,51,24.50
2007,07,09,14,52,24.40
2007,07,09,14,53,24.50
2007,07,09,14,54,24.50
2007,07,09,14,55,24.40
2007,07,09,14,56,24.40
2007,07,09,14,57,24.50
2007,07,09,14,58,24.50
2007,07,09,14,59,24.50
2007,07,09,15,00,24.50
2007,07,09,15,01,24.50
2007,07,09,15,02,24.60
2007,07,09,15,03,24.70
2007,07,09,15,04,24.80
2007,07,09,15,05,24.80
2007,07,09,15,06,24.70
2007,07,09,15,07,24.60
2007,07,09,15,08,24.60
2007,07,09,15,09,24.60
2007,07,09,15,10,24.60
2007,07,09,15,11,24.70
2007,07,09,15,12,24.80
2007,07,09,15,13,24.80
2007,07,09,15,14,24.80
2007,07,09,15,15,24.90
2007,07,09,15,16,24.90
2007,07,09,15,17,24.90
2007,07,09,15,18,25.10
2007,07,09,15,19,25.10
2007,07,09,15,20,25.20
2007,07,09,15,21,25.10
2007,07,09,15,22,25.00
2007,07,09,15,23,24.90
2007,07,09,15,24,24.80
2007,07,09,15,25,24.80
2007,07,09,15,26,24.80
2007,07,09,15,27,24.90
2007,07,09,15,28,24.90
2007,07,09,15,29,24.80
2007,07,09,15,30,24.70
2007,07,09,15,31,24.70
2007,07,09,15,32,24.80
2007,07,09,15,33,24.70
2007,07,09,15,34,24.80
2007,07,09,15,35,24.80
2007,07,09,15,36,24.70
2007,07,09,15,37,24.80
2007,07,09,15,38,24.80
2007,07,09,15,39,24.90
2007,07,09,15,40,24.90
2007,07,09,15,41,25.00
2007,07,09,15,42,24.90
2007,07,09,15,43,24.70
2007,07,09,15,44,24.50
2007,07,09,15,45,24.40
2007,07,09,15,46,24.40
2007,07,09,15,47,24.40
2007,07,09,15,48,24.40
2007,07,09,15,49,24.40
2007,07,09,15,50,24.40
2007,07,09,15,51,24.30
2007,07,09,15,52,24.30
2007,07,09,15,53,24.20
2007,07,09,15,54,24.10
2007,07,09,15,55,24.10
2007,07,09,15,56,24.00
2007,07,09,15,57,24.00
2007,07,09,15,58,24.10
2007,07,09,15,59,24.10
2007,07,09,16,00,24.20
2007,07,09,16,01,24.10
2007,07,09,16,02,24.20
2007,07,09,16,03,24.20
2007,07,09,16,04,24.10
2007,07,09,16,05,24.00
2007,07,09,16,06,24.00
2007,07,09,16,07,24.00
2007,07,09,16,08,24.00
2007,07,09,16,09,24.00
2007,07,09,16,10,24.00
2007,07,09,16,11,24.00
2007,07,09,16,12,23.90
2007,07,09,16,13,23.90
2007,07,09,16,14,23.90
2007,07,09,16,15,23.90
2007,07,09,16,16,23.80
2007,07,09,16,17,23.80
2007,07,09,16,18,23.70
2007,07,09,16,19,23.70
2007,07,09,16,20,23.70
2007,07,09,16,21,23.60
2007,07,09,16,22,23.60
2007,07,09,16,23,23.50
2007,07,09,16,24,23.50
2007,07,09,16,25,23.60
2007,07,09,16,26,23.60
2007,07,09,16,27,23.50
2007,07,09,16,28,23.50
2007,07,09,16,29,23.50
2007,07,09,16,30,23.40
2007,07,09,16,31,23.50
2007,07,09,16,32,23.60
2007,07,09,16,33,23.70
2007,07,09,16,34,23.80
2007,07,09,16,35,23.90
2007,07,09,16,36,24.00
2007,07,09,16,37,24.10
2007,07,09,16,38,24.20
2007,07,09,16,39,24.40
2007,07,09,16,40,24.60
2007,07,09,16,41,24.70
2007,07,09,16,42,24.80
2007,07,09,16,43,25.00
2007,07,09,16,44,25.10
2007,07,09,16,45,25.20
2007,07,09,16,46,25.20
2007,07,09,16,47,25.30
2007,07,09,16,48,25.30
2007,07,09,16,49,25.30
2007,07,09,16,50,25.30
2007,07,09,16,51,25.20
2007,07,09,16,52,25.20
2007,07,09,16,53,25.20
2007,07,09,16,54,25.10
2007,07,09,16,55,25.10
2007,07,09,16,56,25.00
2007,07,09,16,57,24.90
2007,07,09,16,58,24.90
2007,07,09,16,59,24.90
2007,07,09,17,00,24.90
2007,07,09,17,01,25.00
2007,07,09,17,02,25.10
2007,07,09,17,03,25.10
2007,07,09,17,04,24.90
2007,07,09,17,05,24.90
2007,07,09,17,06,24.80
2007,07,09,17,07,24.80
2007,07,09,17,08,24.80
2007,07,09,17,09,25.00
2007,07,09,17,10,25.10
2007,07,09,17,11,25.20
2007,07,09,17,12,25.20
2007,07,09,17,13,25.10
2007,07,09,17,14,25.00
2007,07,09,17,15,25.00
2007,07,09,17,16,25.00
2007,07,09,17,17,25.10
2007,07,09,17,18,25.20
2007,07,09,17,19,25.30